sat.trackr.live / text

‹ back to catalog

STARLINK-31633

NORAD 59331 · 2024-057M

PAYLOAD ACTIVE UNKNOWN

§ Identity

Operator
Country
US
Launch date
2024-03-25
Launch site
AFETR
Launch vehicle
Mass (kg)
RCS (m²)

Purposes: comms

External: N2YO · Heavens-Above · Gunter

§ Orbital elements

Epoch: 2026-09-20T10:54:35.001792Z

Period
94.27 min
Inclination
43.0024°
Eccentricity
0.0000718
Mean motion
15.27574916 rev/d
Perigee alt
482.6 km
Apogee alt
483.6 km
Semi-major
6,861.2 km
B*
2.3200e-5
RAAN
167.3325°
Arg perigee
283.4610°
Mean anomaly
76.6162°
Rev number
13,962

§ Raw data

STARLINK-316331 59331U 24057M   26263.45457178  .00000376  00000+0  23200-4 0  99952 59331  43.0024 167.3325 0000718 283.4610  76.6162 15.27574916139629

JSON: /api/v1/satellites/59331 · /tle

For live sub-satellite position, see the globe view (requires WebGL).

§ Visibility from observer

Set your observer location to see the next 7 days of passes ≥ 10°. The values pass through the URL so the page stays shareable.

No JS? Fill the form by hand. The geolocation button needs JavaScript.